Погода в Ахмадпуре-Ист

Пакистан     29°07′10″N   71°16′04″E
темп.,
°C
ветер,
м/с
пор.,
м/с
влажн.,
%
обл.,
%
осадки,
мм/ч
давл.,
гПа
погр.,
м
18 мая, вт
вт1823:00+34св14264 0.0 1004298
02:00+33юз11320 0.0 100211
05:00+32ююз233679 0.0 100336
08:00+35ю553199 0.0 1004891
11:00+37ю4327100 0.0 10041823
14:00+39ююв742360 0.0 10022966
17:00+36юв111022100 0.0 10011445
20:00+32ю692891 0.0 1003856
19 мая, ср
ср1923:00+32юв122853 0.0 1002298
02:00+32всв122999 0.0 1001117
05:00+28юв7942100 0.0 1002482
08:00+28вюв6847100 0.0 1004578
11:00+33в783481 0.0 10031340
14:00+35в77290 0.0 10012116
17:00+34в76320 0.0 10002048
20:00+30вюв68410 0.0 1002565
20 мая, чт
чт2023:00+28юв68480 0.0 1002483
02:00+27ююв235160 0.0 1002276
05:00+26ююз355292 0.0 1002285
08:00+29ююз56420 0.0 1003667
11:00+34ююз78290 0.0 10031590
14:00+39ююз66210 0.0 10002374
17:00+41ю46170 0.0 9982865
20:00+39ю510160 0.0 997274
21 мая, пт
пт2123:00+36ююв611210 0.0 998313
02:00+34ююз917320 0.0 997757
05:00+31ююз916500 0.0 998628
08:00+33зюз89430 0.0 1001958
11:00+38сз45250 0.0 10011947
14:00+41ссз77190 0.0 10002956
17:00+41ссз67180 0.0 9993389
20:00+37с79260 0.0 1001620
22 мая, сб
сб2223:00+34ссв69320 0.0 1001462
02:00+32св59390 0.0 1000467
05:00+31ссв69430 0.0 1002298
08:00+33всв56360 0.0 1004708
11:00+38в43230 0.0 10041807
14:00+40вюв22180 0.0 10022890
17:00+41ююз23160 0.0 9993000
20:00+35юв6927100 0.0 1000237